Weather: Dry 11 °C | ENE (1 mph) | Humidity: 78% | Pressure: 748.9", Rising | 21/10/17 @ 1945 Netweather

Weather for the Last 2 Days

This table shows a detailed breakdown (taken every 15 minutes) of the weather in Henley over the last 2 days. This information is generated by a personal weather station located in Henley.


Date Time Temp Rain Wind Speed Wind Dir Hum Bar
20/10/17 0015 11°C 0 0 mph --- 96% 746.1
20/10/17 0030 11°C 0 0 mph --- 96% 746.3
20/10/17 0045 11°C 0 0 mph --- 96% 746.1
20/10/17 0100 11°C 0 0 mph --- 96% 746.1
20/10/17 0115 10°C 0 0 mph --- 96% 745.8
20/10/17 0130 10°C 0 0 mph NNW 96% 745.7
20/10/17 0145 11°C 0 0 mph --- 96% 745.7
20/10/17 0200 11°C 0 0 mph --- 96% 745.5
20/10/17 0215 11°C 0 0 mph --- 96% 745.4
20/10/17 0230 11°C 0 0 mph ESE 96% 745.4
20/10/17 0245 11°C 0 0 mph --- 96% 745.3
20/10/17 0300 11°C 0 0 mph --- 96% 745.2
20/10/17 0315 11°C 0 0 mph ESE 96% 745.1
20/10/17 0330 11°C 0 0 mph SSW 96% 745.2
20/10/17 0345 11°C 0 0 mph --- 96% 745.1
20/10/17 0400 11°C 0 0 mph SSE 96% 745.0
20/10/17 0415 11°C 0 0 mph SSE 96% 744.9
20/10/17 0430 11°C 0 1 mph SE 96% 744.9
20/10/17 0445 11°C 0 0 mph SSE 96% 744.9
20/10/17 0500 11°C 0 1 mph S 96% 745.0
20/10/17 0515 11°C 0 1 mph SE 96% 745.2
20/10/17 0530 11°C 0 1 mph SE 95% 745.4
20/10/17 0545 11°C 0 2 mph SE 95% 745.7
20/10/17 0600 11°C 0 2 mph WSW 95% 746.1
20/10/17 0615 11°C 0 2 mph W 95% 746.3
20/10/17 0630 11°C 0 1 mph WSW 95% 746.7
20/10/17 0645 11°C 0 3 mph WSW 95% 747.0
20/10/17 0700 11°C 0 1 mph NE 95% 747.4
20/10/17 0715 11°C 0 1 mph NE 94% 747.7
20/10/17 0730 11°C 0 3 mph SE 93% 748.0
20/10/17 0745 11°C 0 2 mph WSW 93% 748.4
20/10/17 0800 11°C 0 2 mph W 93% 748.7
20/10/17 0815 11°C 0 3 mph WSW 93% 748.9
20/10/17 0830 11°C 0 2 mph WSW 93% 749.3
20/10/17 0845 11°C 0 1 mph WSW 92% 749.7
20/10/17 0900 11°C 0 1 mph SW 92% 750.0
20/10/17 0915 11°C 0 3 mph SW 91% 750.4
20/10/17 0930 11°C 0 4 mph W 90% 750.7
20/10/17 0945 11°C 0 1 mph WSW 89% 751.1
20/10/17 1000 11°C 0 2 mph WSW 88% 751.2
20/10/17 1015 11°C 0 2 mph SW 87% 751.6
20/10/17 1030 11°C 0 1 mph SW 85% 751.9
20/10/17 1045 11°C 0 1 mph WSW 85% 752.0
20/10/17 1100 11°C 0 3 mph SW 85% 752.3
20/10/17 1115 11°C 0 2 mph W 84% 752.4
20/10/17 1130 12°C 0 1 mph WNW 82% 752.4
20/10/17 1145 12°C 0 3 mph WNW 80% 752.7
20/10/17 1200 12°C 0 2 mph WSW 79% 752.9
20/10/17 1215 13°C 0 3 mph WSW 77% 753.0
20/10/17 1230 13°C 0 2 mph WNW 74% 753.1
20/10/17 1245 13°C 0 2 mph SW 74% 753.1
20/10/17 1300 13°C 0 2 mph WSW 74% 753.2
20/10/17 1315 13°C 0 1 mph N 73% 753.2
20/10/17 1330 13°C 0 2 mph W 71% 753.3
20/10/17 1345 13°C 0 3 mph WSW 71% 753.5
20/10/17 1400 13°C 0 2 mph SSW 68% 753.6
20/10/17 1415 13°C 0 3 mph WSW 68% 753.8
20/10/17 1430 13°C 0 3 mph WSW 69% 753.9
20/10/17 1445 14°C 0 2 mph ESE 65% 753.9
20/10/17 1500 13°C 0 2 mph WNW 63% 754.1
20/10/17 1515 13°C 0 2 mph SW 64% 754.3
20/10/17 1530 13°C 0 3 mph SW 64% 754.3
20/10/17 1545 13°C 0 1 mph S 67% 754.4
20/10/17 1600 12°C 0 0 mph --- 67% 754.4
20/10/17 1615 12°C 0 0 mph SSW 67% 754.3
20/10/17 1630 12°C 0 0 mph --- 68% 754.5
20/10/17 1645 12°C 0 0 mph ESE 69% 754.4
20/10/17 1700 12°C 0 1 mph S 70% 754.4
20/10/17 1715 12°C 0 0 mph WSW 70% 754.4
20/10/17 1730 12°C 0 0 mph SSW 71% 754.3
20/10/17 1745 12°C 0 0 mph SSW 72% 754.3
20/10/17 1800 11°C 0 0 mph --- 73% 754.3
20/10/17 1815 11°C 0 0 mph --- 75% 754.3
20/10/17 1830 11°C 0 0 mph --- 77% 754.3
20/10/17 1845 11°C 0 0 mph --- 79% 754.3
20/10/17 1900 11°C 0 0 mph --- 81% 754.0
20/10/17 1915 11°C 0 0 mph --- 82% 754.1
20/10/17 1930 11°C 0 0 mph --- 83% 754.0
20/10/17 1945 10°C 0 0 mph --- 84% 753.8
20/10/17 2000 10°C 0 0 mph --- 85% 753.8
20/10/17 2015 10°C 0 0 mph --- 85% 753.6
20/10/17 2030 10°C 0 0 mph --- 85% 753.3
20/10/17 2045 10°C 0 0 mph --- 86% 753.2
20/10/17 2100 10°C 0 0 mph --- 88% 753.0
20/10/17 2115 10°C 0 0 mph --- 88% 752.8
20/10/17 2130 10°C 0 0 mph --- 89% 752.7
20/10/17 2145 10°C 0 0 mph --- 90% 752.5
20/10/17 2200 10°C 0 0 mph --- 90% 752.4
20/10/17 2215 11°C 0 0 mph --- 91% 752.0
20/10/17 2230 11°C 0 0 mph --- 92% 751.8
20/10/17 2245 11°C 0 0 mph --- 92% 751.5
20/10/17 2300 11°C 0 0 mph --- 92% 751.2
20/10/17 2315 12°C 0 0 mph --- 92% 751.2
20/10/17 2330 12°C 0 0 mph --- 92% 750.8
20/10/17 2345 12°C 0 0 mph --- 93% 750.7
21/10/17 0000 12°C 0 0 mph --- 93% 750.7
21/10/17 0015 12°C 0 0 mph --- 94% 750.4
21/10/17 0030 12°C 0 0 mph --- 94% 750.3
21/10/17 0045 12°C 0 0 mph --- 95% 750.0
21/10/17 0100 12°C 0 0 mph --- 95% 749.7
21/10/17 0115 12°C 0 0 mph --- 95% 749.6
21/10/17 0130 12°C 0 0 mph --- 95% 749.5
21/10/17 0145 13°C 0 0 mph --- 95% 749.5
21/10/17 0200 13°C 0 0 mph SE 95% 749.4
21/10/17 0215 13°C 0 0 mph --- 95% 749.2
21/10/17 0230 13°C 0 0 mph --- 95% 748.9
21/10/17 0245 13°C 0 0 mph --- 95% 749.2
21/10/17 0300 13°C 0 1 mph SSW 95% 749.2
21/10/17 0315 12°C 0 0 mph SSE 96% 749.1
21/10/17 0330 12°C 0 0 mph WNW 96% 749.2
21/10/17 0345 12°C 0 0 mph --- 96% 749.2
21/10/17 0400 12°C 0 0 mph N 96% 748.9
21/10/17 0415 12°C 0 0 mph WSW 96% 748.8
21/10/17 0430 12°C 0 1 mph W 96% 748.7
21/10/17 0445 12°C 0 0 mph SSE 96% 748.8
21/10/17 0500 12°C 0 1 mph E 96% 748.8
21/10/17 0515 12°C 0 0 mph SSW 94% 749.1
21/10/17 0530 12°C 0 1 mph WSW 94% 748.9
21/10/17 0545 11°C 0 0 mph S 93% 749.0
21/10/17 0600 11°C 0 0 mph S 93% 749.0
21/10/17 0615 11°C 0 0 mph SE 93% 749.1
21/10/17 0630 11°C 0 1 mph S 93% 749.0
21/10/17 0645 11°C 0 1 mph SSW 93% 749.2
21/10/17 0700 11°C 0 0 mph SSE 92% 749.2
21/10/17 0715 11°C 0 0 mph SE 91% 748.8
21/10/17 0730 11°C 0 1 mph SSE 91% 748.8
21/10/17 0745 11°C 0 1 mph SSW 89% 748.8
21/10/17 0800 10°C 0 0 mph SE 88% 748.9
21/10/17 0815 10°C 0 0 mph SSE 88% 748.9
21/10/17 0830 10°C 0 0 mph SE 88% 748.9
21/10/17 0845 10°C 0 1 mph E 88% 749.1
21/10/17 0900 10°C 0 0 mph --- 87% 749.2
21/10/17 0915 11°C 0 0 mph SSE 87% 749.1
21/10/17 0930 11°C 0 1 mph WSW 83% 749.0
21/10/17 0945 11°C 0 1 mph SE 83% 749.0
21/10/17 1000 11°C 0 1 mph SE 84% 748.9
21/10/17 1015 12°C 0 1 mph SSE 84% 748.9
21/10/17 1030 12°C 0 1 mph S 82% 749.0
21/10/17 1045 12°C 0 2 mph ESE 81% 749.0
21/10/17 1100 12°C 0 2 mph SSE 80% 749.0
21/10/17 1115 12°C 0 1 mph ESE 80% 748.8
21/10/17 1130 12°C 0 2 mph SE 78% 748.8
21/10/17 1145 13°C 0 1 mph SE 79% 748.9
21/10/17 1200 13°C 0 3 mph SE 78% 748.9
21/10/17 1215 13°C 0 3 mph E 78% 748.8
21/10/17 1230 13°C 0 1 mph SW 77% 748.7
21/10/17 1245 13°C 0 2 mph SW 77% 748.5
21/10/17 1300 13°C 0 3 mph SSE 79% 748.5
21/10/17 1315 13°C 0 2 mph SE 79% 748.5
21/10/17 1330 13°C 0 4 mph SSW 79% 748.4
21/10/17 1345 13°C 0 4 mph WSW 72% 748.5
21/10/17 1400 13°C 0 3 mph SE 72% 748.5
21/10/17 1415 13°C 0 3 mph S 72% 748.5
21/10/17 1430 13°C 0 2 mph W 70% 748.4
21/10/17 1445 13°C 0 2 mph SE 68% 748.4
21/10/17 1500 13°C 0 2 mph SSW 67% 748.4
21/10/17 1515 13°C 0 4 mph SSW 67% 748.4
21/10/17 1530 13°C 0 3 mph ESE 68% 748.4
21/10/17 1545 13°C 0 4 mph S 69% 748.4
21/10/17 1600 13°C 0 4 mph SSW 71% 748.7
21/10/17 1615 12°C 0 4 mph SW 71% 748.6
21/10/17 1630 12°C 0 3 mph WSW 71% 748.6
21/10/17 1645 12°C 0 1 mph SW 78% 748.6
21/10/17 1700 12°C 0 2 mph N 76% 748.5
21/10/17 1715 12°C 0 3 mph ESE 75% 748.4
21/10/17 1730 12°C 0 2 mph SE 75% 748.5
21/10/17 1745 12°C 0 2 mph SE 76% 748.5
21/10/17 1800 12°C 0 2 mph N 75% 748.6
21/10/17 1815 12°C 0 1 mph SW 76% 748.7
21/10/17 1830 11°C 0 1 mph SE 77% 748.5
21/10/17 1845 11°C 0 0 mph S 80% 748.5
21/10/17 1900 11°C 0 1 mph E 79% 748.7
21/10/17 1915 11°C 0 3 mph SSW 79% 748.8
21/10/17 1930 11°C 0 1 mph SE 78% 748.8
21/10/17 1945 11°C 0 1 mph ENE 78% 748.9

Site Map | Advertise | Links to Other Sites | Testimonials | Map | Privacy & Cookies | Follow us on Twitter | Find us on Facebook
Copyright © 2017 – Michael Crook. All rights reserved. Part of the Every UK Town network.
Site by MSC Web

Henley-on-Thames :: Your Online Guide